Regional Weather Roundup
Issued by NWS Midland/Odessa, TX

Skip options and go directly to product.
Home | Oldest Version | Next Version | Current Version | All | Text Only | Save Text | Print | Product List | Glossary On

Skip product version selection by date and time.   
955
ASUS44 KMAF 302302
RWRMAF
MIDLAND AREA WEATHER ROUNDUP
NATIONAL WEATHER SERVICE MIDLAND TX
600 PM CDT TUE SEP 30 2014

...IN SOUTHWEST TEXAS AND SOUTHEAST NEW MEXICO...

CITY           SKY/WX    TMP DP  RH WIND       PRES   REMARKS
ALPINE         MOSUNNY   83  55  38 W9        29.96S
ANDREWS        FAIR      88  52  29 SW9G24    29.79F
ARTESIA        NOT AVBL
BIG SPRING     SUNNY     91  58  32 S9G17     29.78F
CARLSBAD       SUNNY     87  47  24 W16G23    29.78S
DRYDEN           N/A     92  60  34 SE9       29.76F
FORT STOCKTON  MOSUNNY   89  53  29 CALM      29.79F
GUAD PASS      SUNNY     77  45  32 W31G39    29.94F
HOBBS          MOSUNNY   82  55  39 SW10      29.82F
MARFA          MOSUNNY   84  50  30 W13       29.95F
MIDLAND AIRPK  SUNNY     91  54  29 SW10      29.78S
MIDLAND INTL   SUNNY     90  56  31 SW10      29.77F
ODESSA         SUNNY     88  53  30 SW12      29.79F
PECOS          PTSUNNY   88  58  35 SE10G17   29.76S
PRESIDIO       FAIR      91  56  29 SE6       29.78F
SEMINOLE       MOSUNNY   85  51  30 SW12      29.80F
SNYDER         SUNNY     87  63  44 S13       29.76F
WINK           SUNNY     90  56  31 SW8       29.75F
$$
...OTHER STATIONS IN TEXAS...

CITY           SKY/WX    TMP DP  RH WIND       PRES   REMARKS
ABILENE        SUNNY     89  56  32 S13G23    29.76F
AMARILLO       SUNNY     81  39  22 SW17G24   29.78S
AUSTIN         MOSUNNY   90  65  43 S8        29.76F
BROWNSVILLE    MOSUNNY   86  77  74 S6        29.75R
CORPUS CHRISTI MOSUNNY   84  75  74 E13       29.75F
DALLAS FTW     MOSUNNY   91  62  37 SE13      29.74F
DEL RIO        SUNNY     88  65  46 SE14      29.73F
EL PASO        MOSUNNY   85  47  26 W13       29.84F
HOUSTON INT    PTSUNNY   84  71  65 S10       29.78S
LUBBOCK        MOSUNNY   85  52  32 SW13      29.77F
SAN ANGELO     SUNNY     91  58  32 S9        29.75F
SAN ANTONIO    MOSUNNY   88  64  44 SE8       29.77F
WACO           MOSUNNY   89  63  41 S12       29.76S
WICHITA FALLS  NOT AVBL
$$
...OTHER LOCATIONS IN NEW MEXICO...

CITY           SKY/WX    TMP DP  RH WIND       PRES   REMARKS
ALAMAGORDO     MOSUNNY   81  37  21 SW5       29.87F
ALBUQUERQUE    MOSUNNY   74  30  19 VRB5      29.91F
CANNON AFB     SUNNY     79  38  23 SW14      29.83F
CLOVIS           N/A     79  39  24 W15G24    29.85S
HOLLOMAN AFB   MOSUNNY   82  37  19 SW8       29.84F
ROSWELL        SUNNY     83  50  31 NE3       29.79F
RUIDOSO        SUNNY     68  32  26 SW14      30.02F
SANTA FE       SUNNY     70  26  19 W18G28    29.94R
TRUTH OR CONSE SUNNY     80  30  16 SE5       29.87F
TUCUMCARI      SUNNY     81  35  19 SW15G25   29.78S
$$

USA.gov is the U.S. government's official web portal to all federal, state and local government web resources and services.